| time (UTC) | temp F | wind direction | speed MPH | gust MPH | rain 1hr in | rain 24hr in | rain mn in | humidity % | barometer mb |
| 20260505204539 | 76 | 152 | 2.0 | 7.0 | 0.00 | 0.00 | 0.00 | 57 | 1007.4 |
| 20260505204337 | 77 | 159 | 2.0 | 7.0 | 0.00 | 0.00 | 0.00 | 58 | 1007.9 |
| 20260505203908 | 77 | 134 | 3.0 | 8.0 | 0.00 | 0.00 | 0.00 | 59 | 1008.0 |
| 20260505203358 | 77 | 137 | 3.0 | 8.0 | 0.00 | 0.00 | 0.00 | 57 | 1008.0 |
| 20260505203119 | 76 | 148 | 2.0 | 7.0 | 0.00 | 0.00 | 0.00 | 58 | 1007.9 |
| 20260505203055 | 76 | 86 | 2.0 | 12.0 | 0.00 | 0.00 | 0.00 | 58 | 1007.6 |
| 20260505202845 | 77 | 138 | 3.0 | 12.0 | 0.00 | 0.00 | 0.00 | 58 | 1008.1 |
| 20260505202354 | 77 | 234 | 4.0 | 12.0 | 0.00 | 0.00 | 0.00 | 56 | 1008.0 |
| 20260505201844 | 77 | 157 | 4.0 | 11.0 | 0.00 | 0.00 | 0.00 | 58 | 1008.0 |
| 20260505201612 | 77 | 134 | 3.0 | 7.0 | 0.00 | 0.00 | 0.00 | 59 | 1007.9 |
| 20260505201542 | 76 | 156 | 2.0 | 10.0 | 0.00 | 0.00 | 0.00 | 58 | 1007.8 |
| 20260505201336 | 77 | 169 | 3.0 | 9.0 | 0.00 | 0.00 | 0.00 | 59 | 1008.1 |
| 20260505200846 | 77 | 198 | 3.0 | 10.0 | 0.00 | 0.00 | 0.00 | 58 | 1008.2 |
| 20260505200359 | 77 | 171 | 5.0 | 9.0 | 0.00 | 0.00 | 0.00 | 56 | 1008.2 |
| 20260505200103 | 77 | 181 | 5.0 | 10.0 | 0.00 | 0.00 | 0.00 | 57 | 1008.0 |
| 20260505200048 | 77 | 198 | 4.0 | 10.0 | 0.00 | 0.00 | 0.00 | 56 | 1008.0 |
| 20260505195845 | 77 | 170 | 3.0 | 10.0 | 0.00 | 0.00 | 0.00 | 60 | 1008.3 |
| 20260505195356 | 77 | 188 | 4.0 | 10.0 | 0.00 | 0.00 | 0.00 | 59 | 1008.4 |
| 20260505194847 | 77 | 195 | 5.0 | 10.0 | 0.00 | 0.00 | 0.00 | 57 | 1008.4 |
| 20260505194615 | 77 | 167 | 4.0 | 10.0 | 0.00 | 0.00 | 0.00 | 59 | 1008.2 |
| 20260505194543 | 77 | 164 | 5.0 | 10.0 | 0.00 | 0.00 | 0.00 | 60 | 1008.2 |
| 20260505194337 | 77 | 163 | 6.0 | 10.0 | 0.00 | 0.00 | 0.00 | 57 | 1008.5 |
| 20260505193847 | 78 | 105 | 4.0 | 15.0 | 0.00 | 0.00 | 0.00 | 61 | 1008.6 |
| 20260505193356 | 77 | 222 | 4.0 | 15.0 | 0.00 | 0.00 | 0.00 | 57 | 1008.6 |
| 20260505193121 | 77 | 166 | 6.0 | 15.0 | 0.00 | 0.00 | 0.00 | 56 | 1008.4 |
| 20260505193038 | 77 | 189 | 5.0 | 14.0 | 0.00 | 0.00 | 0.00 | 56 | 1008.3 |
| 20260505192844 | 78 | 152 | 5.0 | 9.0 | 0.00 | 0.00 | 0.00 | 56 | 1008.6 |
| 20260505192336 | 78 | 227 | 3.0 | 11.0 | 0.00 | 0.00 | 0.00 | 57 | 1008.7 |
| 20260505191846 | 78 | 174 | 5.0 | 11.0 | 0.00 | 0.00 | 0.00 | 55 | 1008.7 |
| 20260505191632 | 78 | 178 | 4.0 | 8.0 | 0.00 | 0.00 | 0.00 | 56 | 1008.5 |
| 20260505191550 | 79 | 176 | 2.0 | 9.0 | 0.00 | 0.00 | 0.00 | 55 | 1008.3 |
| 20260505191335 | 79 | 204 | 1.0 | 9.0 | 0.00 | 0.00 | 0.00 | 55 | 1008.7 |
| 20260505190846 | 79 | 157 | 3.0 | 9.0 | 0.00 | 0.00 | 0.00 | 54 | 1008.6 |
| 20260505190418 | 79 | 147 | 5.0 | 10.0 | 0.00 | 0.00 | 0.00 | 54 | 1008.8 |
| 20260505190122 | 79 | 163 | 4.0 | 10.0 | 0.00 | 0.00 | 0.00 | 54 | 1008.7 |
| 20260505190042 | 79 | 207 | 3.0 | 10.0 | 0.00 | 0.00 | 0.00 | 54 | 1008.5 |
| 20260505185844 | 80 | 142 | 3.0 | 8.0 | 0.00 | 0.00 | 0.00 | 56 | 1008.9 |
| 20260505185354 | 81 | 80 | 3.0 | 8.0 | 0.00 | 0.00 | 0.00 | 55 | 1009.0 |
| 20260505184906 | 80 | 117 | 3.0 | 8.0 | 0.00 | 0.00 | 0.00 | 55 | 1009.1 |
| 20260505184615 | 80 | 140 | 2.0 | 8.0 | 0.00 | 0.00 | 0.00 | 53 | 1008.9 |
| 20260505184548 | 80 | 132 | 3.0 | 8.0 | 0.00 | 0.00 | 0.00 | 53 | 1008.7 |
| 20260505184335 | 81 | 86 | 3.0 | 8.0 | 0.00 | 0.00 | 0.00 | 55 | 1009.2 |
| 20260505183846 | 81 | 189 | 4.0 | 6.0 | 0.00 | 0.00 | 0.00 | 52 | 1009.2 |
| 20260505183341 | 81 | 166 | 3.0 | 10.0 | 0.00 | 0.00 | 0.00 | 52 | 1009.2 |
| 20260505183043 | 80 | 51 | 4.0 | 11.0 | 0.00 | 0.00 | 0.00 | 54 | 1008.9 |
| 20260505183005 | 80 | 80 | 5.0 | 10.0 | 0.00 | 0.00 | 0.00 | 55 | 1009.0 |
| 20260505182904 | 81 | 214 | 5.0 | 11.0 | 0.00 | 0.00 | 0.00 | 51 | 1009.3 |
| 20260505182351 | 81 | 213 | 5.0 | 7.0 | 0.00 | 0.00 | 0.00 | 52 | 1009.2 |
| 20260505181859 | 80 | 163 | 3.0 | 12.0 | 0.00 | 0.00 | 0.00 | 53 | 1009.2 |
| 20260505181606 | 80 | 186 | 4.0 | 12.0 | 0.00 | 0.00 | 0.00 | 52 | 1009.0 |
| 20260505181538 | 80 | 150 | 4.0 | 14.0 | 0.00 | 0.00 | 0.00 | 50 | 1008.8 |
| 20260505181348 | 81 | 169 | 5.0 | 12.0 | 0.00 | 0.00 | 0.00 | 53 | 1009.2 |
| 20260505180842 | 81 | 197 | 4.0 | 14.0 | 0.00 | 0.00 | 0.00 | 53 | 1009.2 |
| 20260505180350 | 81 | 227 | 6.0 | 14.0 | 0.00 | 0.00 | 0.00 | 48 | 1009.2 |
| 20260505180108 | 80 | 215 | 7.0 | 13.0 | 0.00 | 0.00 | 0.00 | 50 | 1009.0 |
| 20260505180036 | 80 | 239 | 5.0 | 12.0 | 0.00 | 0.00 | 0.00 | 50 | 1008.9 |
| 20260505175910 | 81 | 160 | 6.0 | 11.0 | 0.00 | 0.00 | 0.00 | 50 | 1009.2 |
| 20260505175359 | 80 | 104 | 5.0 | 12.0 | 0.00 | 0.00 | 0.00 | 51 | 1009.5 |
| 20260505174909 | 80 | 198 | 6.0 | 12.0 | 0.00 | 0.00 | 0.00 | 53 | 1009.4 |
| 20260505174616 | 79 | 228 | 5.0 | 9.0 | 0.00 | 0.00 | 0.00 | 51 | 1009.1 |
| 20260505174536 | 79 | 166 | 5.0 | 10.0 | 0.00 | 0.00 | 0.00 | 50 | 1009.1 |
| 20260505174338 | 80 | 191 | 5.0 | 9.0 | 0.00 | 0.00 | 0.00 | 52 | 1009.5 |
| 20260505173910 | 80 | 229 | 5.0 | 10.0 | 0.00 | 0.00 | 0.00 | 51 | 1009.5 |
| 20260505173400 | 80 | 164 | 3.0 | 9.0 | 0.00 | 0.00 | 0.00 | 54 | 1009.5 |
| 20260505173128 | 79 | 151 | 3.0 | 9.0 | 0.00 | 0.00 | 0.00 | 52 | 1009.3 |
| 20260505173041 | 79 | 239 | 3.0 | 9.0 | 0.00 | 0.00 | 0.00 | 51 | 1009.2 |
| 20260505172841 | 80 | 215 | 3.0 | 7.0 | 0.00 | 0.00 | 0.00 | 53 | 1009.5 |
| 20260505172353 | 80 | 155 | 3.0 | 11.0 | 0.00 | 0.00 | 0.00 | 53 | 1009.6 |
| 20260505171903 | 80 | 123 | 2.0 | 11.0 | 0.00 | 0.00 | 0.00 | 54 | 1009.6 |
| 20260505171611 | 79 | 103 | 2.0 | 11.0 | 0.00 | 0.00 | 0.00 | 55 | 1009.4 |
| 20260505171539 | 79 | 100 | 2.0 | 8.0 | 0.00 | 0.00 | 0.00 | 55 | 1009.2 |
| 20260505171352 | 80 | 157 | 3.0 | 8.0 | 0.00 | 0.00 | 0.00 | 54 | 1009.6 |
| 20260505170843 | 80 | 209 | 4.0 | 8.0 | 0.00 | 0.00 | 0.00 | 52 | 1009.7 |
| 20260505170339 | 80 | 200 | 3.0 | 7.0 | 0.00 | 0.00 | 0.00 | 55 | 1009.9 |
| 20260505170120 | 79 | 203 | 3.0 | 8.0 | 0.00 | 0.00 | 0.00 | 56 | 1009.7 |
| 20260505170040 | 79 | 197 | 3.0 | 8.0 | 0.00 | 0.00 | 0.00 | 55 | 1009.4 |
| 20260505165846 | 80 | 176 | 4.0 | 7.0 | 0.00 | 0.00 | 0.00 | 52 | 1009.8 |
| 20260505165354 | 79 | 164 | 3.0 | 7.0 | 0.00 | 0.00 | 0.00 | 56 | 1010.0 |
| 20260505164843 | 79 | 169 | 3.0 | 7.0 | 0.00 | 0.00 | 0.00 | 52 | 1010.0 |
| 20260505164608 | 79 | 211 | 3.0 | 6.0 | 0.00 | 0.00 | 0.00 | 54 | 1009.8 |
| 20260505164539 | 79 | 169 | 3.0 | 14.0 | 0.00 | 0.00 | 0.00 | 53 | 1009.6 |
| 20260505164354 | 79 | 175 | 3.0 | 11.0 | 0.00 | 0.00 | 0.00 | 52 | 1010.0 |
| 20260505163844 | 79 | 187 | 5.0 | 14.0 | 0.00 | 0.00 | 0.00 | 51 | 1010.2 |
| 20260505163355 | 79 | 202 | 7.0 | 14.0 | 0.00 | 0.00 | 0.00 | 52 | 1010.3 |
| 20260505163042 | 78 | 198 | 3.0 | 9.0 | 0.00 | 0.00 | 0.00 | 53 | 1009.7 |
| 20260505163002 | 78 | 213 | 4.0 | 9.0 | 0.00 | 0.00 | 0.00 | 53 | 1010.0 |
| 20260505162901 | 79 | 174 | 4.0 | 9.0 | 0.00 | 0.00 | 0.00 | 50 | 1010.3 |
| 20260505162349 | 79 | 147 | 2.0 | 8.0 | 0.00 | 0.00 | 0.00 | 53 | 1010.2 |
| 20260505161837 | 79 | 180 | 2.0 | 7.0 | 0.00 | 0.00 | 0.00 | 51 | 1010.4 |
| 20260505161621 | 78 | 100 | 1.0 | 7.0 | 0.00 | 0.00 | 0.00 | 54 | 1010.1 |
| 20260505161543 | 78 | 134 | 3.0 | 8.0 | 0.00 | 0.00 | 0.00 | 51 | 1009.7 |
| 20260505161347 | 78 | 232 | 4.0 | 7.0 | 0.00 | 0.00 | 0.00 | 50 | 1010.4 |
| 20260505160837 | 79 | 200 | 3.0 | 8.0 | 0.00 | 0.00 | 0.00 | 50 | 1010.5 |
| 20260505160347 | 79 | 215 | 1.0 | 11.0 | 0.00 | 0.00 | 0.00 | 50 | 1010.6 |
| 20260505160111 | 78 | 103 | 2.0 | 11.0 | 0.00 | 0.00 | 0.00 | 53 | 1010.5 |
| 20260505153107 | 76 | 128 | 1.0 | 8.0 | 0.00 | 0.00 | 0.00 | 53 | 1010.8 |
| 20260505153045 | 76 | 0 | 3.0 | 8.0 | 0.00 | 0.00 | 0.00 | 52 | 1010.4 |
| 20260505152848 | 77 | 217 | 4.0 | 8.0 | 0.00 | 0.00 | 0.00 | 53 | 1011.0 |
| 20260505152339 | 77 | 199 | 2.0 | 6.0 | 0.00 | 0.00 | 0.00 | 55 | 1011.0 |
| 20260505151910 | 76 | 267 | 3.0 | 8.0 | 0.00 | 0.00 | 0.00 | 55 | 1010.9 |
| 20260505151618 | 76 | 146 | 1.0 | 8.0 | 0.00 | 0.00 | 0.00 | 56 | 1010.7 |
| 20260505151543 | 76 | 150 | 2.0 | 8.0 | 0.00 | 0.00 | 0.00 | 54 | 1010.4 |
| 20260505151341 | 76 | 15 | 3.0 | 8.0 | 0.00 | 0.00 | 0.00 | 55 | 1011.0 |
| 20260505150852 | 76 | 192 | 3.0 | 8.0 | 0.00 | 0.00 | 0.00 | 58 | 1011.1 |
| 20260505150344 | 76 | 238 | 4.0 | 8.0 | 0.00 | 0.00 | 0.00 | 55 | 1011.3 |
| 20260505150110 | 75 | 232 | 3.0 | 8.0 | 0.00 | 0.00 | 0.00 | 57 | 1011.2 |
| 20260505140412 | 71 | 235 | 3.0 | 6.0 | 0.00 | 0.00 | 0.00 | 65 | 1011.4 |
| 20260505140109 | 70 | 239 | 1.0 | 7.0 | 0.00 | 0.00 | 0.00 | 66 | 1011.3 |
| 20260505124839 | 61 | 200 | 3.0 | 4.0 | 0.00 | 0.00 | 0.00 | 84 | 1011.2 |
| 20260505124607 | 60 | 202 | 1.0 | 5.0 | 0.00 | 0.00 | 0.00 | 86 | 1011.1 |
| 20260505124540 | 60 | 179 | 1.0 | 5.0 | 0.00 | 0.00 | 0.00 | 85 | 1010.6 |
| 20260505124349 | 60 | 215 | 2.0 | 5.0 | 0.00 | 0.00 | 0.00 | 87 | 1011.3 |
| 20260505123839 | 59 | 165 | 1.0 | 4.0 | 0.00 | 0.00 | 0.00 | 89 | 1011.3 |
| 20260505123350 | 59 | 174 | 2.0 | 4.0 | 0.00 | 0.00 | 0.00 | 91 | 1011.3 |
| 20260505123115 | 58 | 190 | 2.0 | 4.0 | 0.00 | 0.00 | 0.00 | 92 | 1011.3 |
| 20260505123038 | 58 | 183 | 2.0 | 5.0 | 0.00 | 0.00 | 0.00 | 92 | 1010.8 |
| 20260505122838 | 58 | 198 | 3.0 | 4.0 | 0.00 | 0.00 | 0.00 | 94 | 1011.2 |
| 20260505122347 | 57 | 190 | 1.0 | 4.0 | 0.00 | 0.00 | 0.00 | 96 | 1011.0 |
| 20260505121838 | 57 | 106 | 1.0 | 3.0 | 0.00 | 0.00 | 0.00 | 97 | 1011.0 |
| 20260505121608 | 56 | 189 | 1.0 | 6.0 | 0.00 | 0.00 | 0.00 | 97 | 1011.0 |
| 20260505121548 | 56 | 215 | 0.0 | 6.0 | 0.00 | 0.00 | 0.00 | 97 | 1010.3 |
| 20260505121411 | 56 | 155 | 1.0 | 6.0 | 0.00 | 0.00 | 0.00 | 97 | 1011.0 |
| 20260505120839 | 55 | 67 | 3.0 | 6.0 | 0.00 | 0.00 | 0.00 | 98 | 1011.1 |
| 20260505120351 | 55 | 156 | 1.0 | 3.0 | 0.00 | 0.00 | 0.00 | 98 | 1011.0 |
| 20260505120114 | 54 | 355 | 1.0 | 3.0 | 0.00 | 0.00 | 0.00 | 98 | 1010.8 |
| 20260505120042 | 54 | 5 | 0.0 | 4.0 | 0.00 | 0.00 | 0.00 | 97 | 1010.3 |
| 20260505115836 | 54 | 346 | 1.0 | 4.0 | 0.00 | 0.00 | 0.00 | 98 | 1010.9 |
| 20260505115348 | 54 | 348 | 1.0 | 4.0 | 0.00 | 0.00 | 0.00 | 98 | 1011.1 |
| 20260505114837 | 53 | 80 | 0.0 | 1.0 | 0.00 | 0.00 | 0.00 | 98 | 1011.3 |
| 20260505114607 | 53 | 108 | 0.0 | 1.0 | 0.00 | 0.00 | 0.00 | 98 | 1011.2 |
| 20260505114538 | 53 | 108 | 0.0 | 1.0 | 0.00 | 0.00 | 0.00 | 97 | 1010.7 |
| 20260505114410 | 53 | 108 | 0.0 | 1.0 | 0.00 | 0.00 | 0.00 | 98 | 1011.4 |
| 20260505113838 | 52 | 108 | 0.0 | 0.0 | 0.00 | 0.00 | 0.00 | 97 | 1011.7 |
| 20260505113348 | 51 | 108 | 0.0 | 1.0 | 0.00 | 0.00 | 0.00 | 97 | 1011.8 |
| 20260505113112 | 50 | 108 | 0.0 | 1.0 | 0.00 | 0.00 | 0.00 | 97 | 1011.7 |
| 20260505113054 | 50 | 0 | 0.0 | 1.0 | 0.00 | 0.00 | 0.00 | 97 | 1011.1 |
| 20260505112856 | 50 | 108 | 0.0 | 1.0 | 0.00 | 0.00 | 0.00 | 97 | 1011.6 |
| 20260505112345 | 49 | 108 | 0.0 | 0.0 | 0.00 | 0.00 | 0.00 | 97 | 1011.5 |
| 20260505111915 | 49 | 108 | 0.0 | 1.0 | 0.00 | 0.00 | 0.00 | 97 | 1011.5 |
| 20260505111603 | 48 | 108 | 0.0 | 1.0 | 0.00 | 0.00 | 0.00 | 97 | 1011.5 |
| 20260505111544 | 47 | 0 | 0.0 | 1.0 | 0.00 | 0.00 | 0.00 | 96 | 1010.9 |
| 20260505111406 | 48 | 108 | 0.0 | 1.0 | 0.00 | 0.00 | 0.00 | 97 | 1011.7 |
| 20260505110837 | 47 | 108 | 0.0 | 1.0 | 0.00 | 0.00 | 0.00 | 96 | 1011.7 |
| 20260505110349 | 47 | 108 | 1.0 | 1.0 | 0.00 | 0.00 | 0.00 | 96 | 1011.6 |
| 20260505110114 | 46 | 108 | 0.0 | 1.0 | 0.00 | 0.00 | 0.00 | 96 | 1011.5 |
| 20260505101855 | 46 | 108 | 0.0 | 0.0 | 0.00 | 0.00 | 0.00 | 96 | 1011.1 |
| 20260505101618 | 46 | 108 | 0.0 | 0.0 | 0.00 | 0.00 | 0.00 | 96 | 1011.0 |
| 20260505101544 | 46 | 0 | 0.0 | 0.0 | 0.00 | 0.00 | 0.00 | 95 | 1010.3 |
| 20260505101346 | 46 | 108 | 0.0 | 0.0 | 0.00 | 0.00 | 0.00 | 95 | 1011.0 |
| 20260505100855 | 46 | 108 | 0.0 | 1.0 | 0.00 | 0.00 | 0.00 | 96 | 1011.1 |
| 20260505100345 | 46 | 108 | 0.0 | 1.0 | 0.00 | 0.00 | 0.00 | 96 | 1011.0 |
| 20260505100108 | 46 | 108 | 0.0 | 1.0 | 0.00 | 0.00 | 0.00 | 96 | 1010.8 |
| 20260505100039 | 45 | 0 | 0.0 | 1.0 | 0.00 | 0.00 | 0.00 | 95 | 1010.1 |
| 20260505095851 | 46 | 108 | 0.0 | 1.0 | 0.00 | 0.00 | 0.00 | 95 | 1010.8 |
| 20260505095341 | 46 | 108 | 0.0 | 1.0 | 0.00 | 0.00 | 0.00 | 95 | 1010.8 |
| 20260505094848 | 46 | 108 | 0.0 | 1.0 | 0.00 | 0.00 | 0.00 | 95 | 1010.8 |
| 20260505094614 | 45 | 108 | 0.0 | 1.0 | 0.00 | 0.00 | 0.00 | 95 | 1010.7 |
| 20260505094536 | 45 | 0 | 0.0 | 1.0 | 0.00 | 0.00 | 0.00 | 95 | 1010.0 |
| 20260505094338 | 46 | 108 | 0.0 | 1.0 | 0.00 | 0.00 | 0.00 | 95 | 1010.8 |
| 20260505093849 | 46 | 108 | 0.0 | 1.0 | 0.00 | 0.00 | 0.00 | 95 | 1010.8 |
| 20260505093340 | 46 | 108 | 0.0 | 0.0 | 0.00 | 0.00 | 0.00 | 95 | 1010.8 |
| 20260505093106 | 45 | 108 | 0.0 | 0.0 | 0.00 | 0.00 | 0.00 | 95 | 1010.7 |
| 20260505093051 | 45 | 0 | 0.0 | 0.0 | 0.00 | 0.00 | 0.00 | 95 | 1009.9 |
| 20260505092846 | 46 | 108 | 0.0 | 0.0 | 0.00 | 0.00 | 0.00 | 95 | 1010.7 |
| 20260505092336 | 46 | 108 | 0.0 | 0.0 | 0.00 | 0.00 | 0.00 | 95 | 1010.7 |
| 20260505091847 | 46 | 108 | 0.0 | 1.0 | 0.00 | 0.00 | 0.00 | 95 | 1010.8 |
| 20260505091615 | 45 | 108 | 0.0 | 1.0 | 0.00 | 0.00 | 0.00 | 95 | 1010.8 |
| 20260505091542 | 45 | 0 | 0.0 | 1.0 | 0.00 | 0.00 | 0.00 | 95 | 1009.9 |
| 20260505091357 | 46 | 108 | 0.0 | 1.0 | 0.00 | 0.00 | 0.00 | 95 | 1010.8 |
| 20260505090906 | 46 | 108 | 0.0 | 0.0 | 0.00 | 0.00 | 0.00 | 95 | 1010.7 |
| 20260505090418 | 46 | 108 | 0.0 | 0.0 | 0.00 | 0.00 | 0.00 | 95 | 1010.6 |
| 20260505090123 | 45 | 108 | 0.0 | 0.0 | 0.00 | 0.00 | 0.00 | 95 | 1010.6 |
| 20260505090041 | 46 | 0 | 0.0 | 1.0 | 0.00 | 0.00 | 0.00 | 94 | 1009.8 |
| 20260505085842 | 46 | 108 | 0.0 | 1.0 | 0.00 | 0.00 | 0.00 | 95 | 1010.7 |
| 20260505085414 | 46 | 108 | 0.0 | 1.0 | 0.00 | 0.00 | 0.00 | 95 | 1010.7 |
| 20260505084843 | 46 | 108 | 0.0 | 0.0 | 0.00 | 0.00 | 0.00 | 95 | 1010.7 |
| 20260505084610 | 46 | 108 | 0.0 | 0.0 | 0.00 | 0.00 | 0.00 | 95 | 1010.6 |
| 20260505084540 | 46 | 0 | 0.0 | 1.0 | 0.00 | 0.00 | 0.00 | 94 | 1009.8 |
| 20260505084352 | 46 | 108 | 0.0 | 1.0 | 0.00 | 0.00 | 0.00 | 95 | 1010.6 |
| 20260505083906 | 46 | 108 | 0.0 | 1.0 | 0.00 | 0.00 | 0.00 | 95 | 1010.7 |
| 20260505083356 | 46 | 108 | 0.0 | 1.0 | 0.00 | 0.00 | 0.00 | 95 | 1010.8 |
| 20260505083101 | 46 | 0 | 0.0 | 1.0 | 0.00 | 0.00 | 0.00 | 94 | 1009.9 |
| 20260505083005 | 46 | 108 | 0.0 | 1.0 | 0.00 | 0.00 | 0.00 | 95 | 1010.6 |
| 20260505082903 | 46 | 108 | 0.0 | 1.0 | 0.00 | 0.00 | 0.00 | 95 | 1010.7 |
| 20260505082352 | 46 | 108 | 0.0 | 1.0 | 0.00 | 0.00 | 0.00 | 95 | 1010.7 |
| 20260505081842 | 46 | 108 | 0.0 | 1.0 | 0.00 | 0.00 | 0.00 | 95 | 1010.8 |
| 20260505081629 | 46 | 108 | 0.0 | 1.0 | 0.00 | 0.00 | 0.00 | 94 | 1010.8 |
| 20260505081542 | 46 | 0 | 0.0 | 1.0 | 0.00 | 0.00 | 0.00 | 94 | 1010.1 |
| 20260505081352 | 46 | 108 | 0.0 | 1.0 | 0.00 | 0.00 | 0.00 | 94 | 1010.8 |
| 20260505080842 | 46 | 108 | 1.0 | 1.0 | 0.00 | 0.00 | 0.00 | 94 | 1010.8 |
| 20260505080354 | 46 | 108 | 0.0 | 1.0 | 0.00 | 0.00 | 0.00 | 94 | 1010.9 |
| 20260505080043 | 46 | 0 | 0.0 | 1.0 | 0.00 | 0.00 | 0.00 | 94 | 1010.0 |
| 20260505080002 | 46 | 108 | 0.0 | 0.0 | 0.00 | 0.00 | 0.00 | 94 | 1010.8 |
| 20260505075900 | 46 | 108 | 0.0 | 1.0 | 0.00 | 0.00 | 0.00 | 94 | 1010.8 |
| 20260505075349 | 46 | 108 | 0.0 | 1.0 | 0.00 | 0.00 | 0.00 | 94 | 1010.9 |
| 20260505074838 | 46 | 108 | 0.0 | 1.0 | 0.00 | 0.00 | 0.00 | 94 | 1010.8 |
| 20260505074605 | 46 | 108 | 0.0 | 1.0 | 0.00 | 0.00 | 0.00 | 94 | 1010.7 |
| 20260505074540 | 46 | 0 | 0.0 | 1.0 | 0.00 | 0.00 | 0.00 | 93 | 1010.0 |
| 20260505074348 | 46 | 108 | 0.0 | 1.0 | 0.00 | 0.00 | 0.00 | 94 | 1010.7 |
| 20260505073839 | 46 | 108 | 0.0 | 0.0 | 0.00 | 0.00 | 0.00 | 94 | 1010.7 |
| 20260505073349 | 47 | 108 | 0.0 | 0.0 | 0.00 | 0.00 | 0.00 | 94 | 1010.6 |
| 20260505073115 | 46 | 108 | 0.0 | 1.0 | 0.00 | 0.00 | 0.00 | 94 | 1010.6 |
| 20260505073041 | 46 | 0 | 0.0 | 1.0 | 0.00 | 0.00 | 0.00 | 93 | 1009.9 |
| 20260505072837 | 47 | 108 | 0.0 | 1.0 | 0.00 | 0.00 | 0.00 | 94 | 1010.7 |
| 20260505072408 | 47 | 108 | 0.0 | 0.0 | 0.00 | 0.00 | 0.00 | 94 | 1010.7 |
| 20260505071857 | 47 | 108 | 0.0 | 1.0 | 0.00 | 0.00 | 0.00 | 94 | 1010.6 |
| 20260505071604 | 46 | 108 | 0.0 | 1.0 | 0.00 | 0.00 | 0.00 | 94 | 1010.6 |
| 20260505071536 | 46 | 0 | 0.0 | 1.0 | 0.00 | 0.00 | 0.00 | 93 | 1009.9 |
| 20260505071345 | 47 | 108 | 0.0 | 1.0 | 0.00 | 0.00 | 0.00 | 94 | 1010.6 |
| 20260505070855 | 47 | 108 | 0.0 | 0.0 | 0.00 | 0.00 | 0.00 | 93 | 1010.6 |
| 20260505070407 | 47 | 108 | 0.0 | 0.0 | 0.00 | 0.00 | 0.00 | 93 | 1010.7 |
| 20260505070113 | 46 | 108 | 0.0 | 0.0 | 0.00 | 0.00 | 0.00 | 93 | 1010.6 |
| 20260505070059 | 46 | 0 | 0.0 | 0.0 | 0.00 | 0.00 | 0.00 | 93 | 1010.0 |
| 20260505065915 | 47 | 108 | 0.0 | 0.0 | 0.00 | 0.00 | 0.00 | 94 | 1010.7 |
| 20260505065344 | 47 | 108 | 0.0 | 0.0 | 0.00 | 0.00 | 0.00 | 94 | 1010.7 |
| 20260505064855 | 47 | 108 | 0.0 | 1.0 | 0.00 | 0.00 | 0.00 | 93 | 1010.7 |
| 20260505064602 | 47 | 108 | 0.0 | 1.0 | 0.00 | 0.00 | 0.00 | 93 | 1010.6 |
| 20260505064548 | 47 | 0 | 0.0 | 1.0 | 0.00 | 0.00 | 0.00 | 93 | 1010.0 |
| 20260505064345 | 47 | 108 | 0.0 | 1.0 | 0.00 | 0.00 | 0.00 | 93 | 1010.7 |
| 20260505063854 | 47 | 108 | 0.0 | 1.0 | 0.00 | 0.00 | 0.00 | 93 | 1010.7 |
| 20260505063346 | 47 | 108 | 0.0 | 1.0 | 0.00 | 0.00 | 0.00 | 93 | 1010.7 |
| 20260505063118 | 47 | 108 | 0.0 | 1.0 | 0.00 | 0.00 | 0.00 | 93 | 1010.8 |
| 20260505063042 | 47 | 0 | 0.0 | 0.0 | 0.00 | 0.00 | 0.00 | 92 | 1010.1 |
| 20260505062853 | 47 | 108 | 0.0 | 0.0 | 0.00 | 0.00 | 0.00 | 93 | 1010.7 |
| 20260505062343 | 47 | 108 | 0.0 | 0.0 | 0.00 | 0.00 | 0.00 | 93 | 1010.8 |
| 20260505061838 | 48 | 108 | 0.0 | 0.0 | 0.00 | 0.00 | 0.00 | 93 | 1010.9 |
| 20260505061622 | 47 | 108 | 0.0 | 0.0 | 0.00 | 0.00 | 0.00 | 93 | 1010.8 |
| 20260505061607 | 47 | 0 | 0.0 | 0.0 | 0.00 | 0.00 | 0.00 | 92 | 1010.1 |
| 20260505061348 | 48 | 108 | 0.0 | 0.0 | 0.00 | 0.00 | 0.00 | 93 | 1010.8 |
| 20260505060838 | 48 | 108 | 0.0 | 0.0 | 0.00 | 0.00 | 0.00 | 93 | 1010.8 |
| 20260505060411 | 48 | 108 | 0.0 | 0.0 | 0.00 | 0.00 | 0.00 | 93 | 1010.9 |
| 20260505060108 | 47 | 108 | 0.0 | 1.0 | 0.00 | 0.00 | 0.00 | 93 | 1010.8 |
| 20260505060050 | 47 | 0 | 0.0 | 1.0 | 0.00 | 0.00 | 0.00 | 92 | 1010.1 |
| 20260505055856 | 48 | 108 | 0.0 | 1.0 | 0.00 | 0.00 | 0.00 | 92 | 1010.8 |
| 20260505055344 | 48 | 108 | 0.0 | 1.0 | 0.00 | 0.00 | 0.00 | 93 | 1010.9 |
| 20260505054852 | 48 | 108 | 0.0 | 0.0 | 0.00 | 0.00 | 0.00 | 92 | 1010.9 |
| 20260505054615 | 48 | 108 | 0.0 | 0.0 | 0.00 | 0.00 | 0.00 | 92 | 1010.8 |
| 20260505054545 | 47 | 0 | 0.0 | 0.0 | 0.00 | 0.00 | 0.00 | 92 | 1010.2 |
| 20260505054339 | 48 | 108 | 0.0 | 0.0 | 0.00 | 0.00 | 0.00 | 92 | 1010.9 |
| 20260505053849 | 48 | 108 | 0.0 | 0.0 | 0.00 | 0.00 | 0.00 | 92 | 1011.0 |
| 20260505053400 | 48 | 108 | 0.0 | 0.0 | 0.00 | 0.00 | 0.00 | 92 | 1010.9 |
| 20260505053117 | 48 | 108 | 0.0 | 0.0 | 0.00 | 0.00 | 0.00 | 92 | 1010.9 |
| 20260505053043 | 48 | 0 | 0.0 | 0.0 | 0.00 | 0.00 | 0.00 | 92 | 1010.3 |
| 20260505052843 | 48 | 108 | 0.0 | 0.0 | 0.00 | 0.00 | 0.00 | 92 | 1010.9 |
| 20260505052353 | 48 | 108 | 0.0 | 0.0 | 0.00 | 0.00 | 0.00 | 92 | 1011.0 |
| 20260505051843 | 49 | 108 | 0.0 | 0.0 | 0.00 | 0.00 | 0.00 | 92 | 1011.1 |
| 20260505051612 | 48 | 108 | 0.0 | 0.0 | 0.00 | 0.00 | 0.00 | 92 | 1011.0 |
| 20260505051541 | 48 | 0 | 0.0 | 0.0 | 0.00 | 0.00 | 0.00 | 91 | 1010.4 |
| 20260505051353 | 49 | 108 | 0.0 | 0.0 | 0.00 | 0.00 | 0.00 | 92 | 1011.1 |
| 20260505050843 | 49 | 108 | 0.0 | 0.0 | 0.00 | 0.00 | 0.00 | 92 | 1011.0 |
| 20260505050355 | 49 | 108 | 0.0 | 1.0 | 0.00 | 0.00 | 0.00 | 92 | 1011.1 |
| 20260505050120 | 48 | 108 | 0.0 | 1.0 | 0.00 | 0.00 | 0.00 | 92 | 1011.0 |
| 20260505041607 | 49 | 108 | 0.0 | 0.0 | 0.00 | 0.00 | 0.00 | 91 | 1011.3 |
| 20260505041546 | 49 | 0 | 0.0 | 0.0 | 0.00 | 0.00 | 0.00 | 90 | 1010.8 |
| 20260505041351 | 50 | 108 | 0.0 | 0.0 | 0.00 | 0.00 | 0.00 | 91 | 1011.3 |
| 20260505040840 | 50 | 108 | 0.0 | 0.0 | 0.00 | 0.00 | 0.00 | 91 | 1011.3 |
| 20260505040352 | 50 | 108 | 0.0 | 0.0 | 0.00 | 0.00 | 0.00 | 90 | 1011.3 |
| 20260505040117 | 50 | 108 | 0.0 | 0.0 | 0.00 | 0.00 | 0.00 | 90 | 1011.2 |
| 20260505040056 | 50 | 0 | 0.0 | 1.0 | 0.00 | 0.00 | 0.00 | 90 | 1010.7 |
| 20260505035839 | 50 | 108 | 0.0 | 0.0 | 0.00 | 0.00 | 0.00 | 90 | 1011.2 |
| 20260505035348 | 50 | 108 | 0.0 | 1.0 | 0.00 | 0.00 | 0.00 | 90 | 1011.2 |
| 20260505034858 | 50 | 108 | 1.0 | 1.0 | 0.00 | 0.00 | 0.00 | 90 | 1011.2 |
| 20260505034604 | 50 | 108 | 0.0 | 0.0 | 0.00 | 0.00 | 0.00 | 90 | 1011.2 |
| 20260505034543 | 50 | 0 | 0.0 | 0.0 | 0.00 | 0.00 | 0.00 | 89 | 1010.7 |
| 20260505034347 | 51 | 108 | 0.0 | 0.0 | 0.00 | 0.00 | 0.00 | 89 | 1011.3 |
| 20260505033856 | 51 | 108 | 0.0 | 0.0 | 0.00 | 0.00 | 0.00 | 89 | 1011.3 |
| 20260505033406 | 51 | 108 | 0.0 | 0.0 | 0.00 | 0.00 | 0.00 | 89 | 1011.3 |
| 20260505033109 | 50 | 108 | 0.0 | 0.0 | 0.00 | 0.00 | 0.00 | 89 | 1011.3 |
| 20260505033037 | 50 | 0 | 0.0 | 0.0 | 0.00 | 0.00 | 0.00 | 88 | 1010.8 |
| 20260505032852 | 51 | 108 | 0.0 | 0.0 | 0.00 | 0.00 | 0.00 | 89 | 1011.3 |
| 20260505032403 | 51 | 108 | 0.0 | 0.0 | 0.00 | 0.00 | 0.00 | 89 | 1011.3 |
| 20260505031852 | 51 | 108 | 0.0 | 0.0 | 0.00 | 0.00 | 0.00 | 88 | 1011.3 |
| 20260505031621 | 51 | 108 | 0.0 | 0.0 | 0.00 | 0.00 | 0.00 | 88 | 1011.3 |
| 20260505031550 | 51 | 0 | 0.0 | 0.0 | 0.00 | 0.00 | 0.00 | 88 | 1010.9 |
| 20260505031343 | 51 | 108 | 0.0 | 0.0 | 0.00 | 0.00 | 0.00 | 88 | 1011.3 |
| 20260505030836 | 52 | 108 | 0.0 | 0.0 | 0.00 | 0.00 | 0.00 | 88 | 1011.3 |
| 20260505030348 | 52 | 108 | 0.0 | 0.0 | 0.00 | 0.00 | 0.00 | 88 | 1011.2 |
| 20260505030112 | 51 | 108 | 0.0 | 0.0 | 0.00 | 0.00 | 0.00 | 88 | 1011.2 |
| 20260505030044 | 51 | 0 | 0.0 | 0.0 | 0.00 | 0.00 | 0.00 | 87 | 1010.8 |
| 20260505025835 | 52 | 108 | 0.0 | 0.0 | 0.00 | 0.00 | 0.00 | 87 | 1011.2 |
| 20260505025346 | 52 | 108 | 0.0 | 1.0 | 0.00 | 0.00 | 0.00 | 87 | 1011.2 |
| 20260505024855 | 52 | 108 | 0.0 | 1.0 | 0.00 | 0.00 | 0.00 | 87 | 1011.2 |
| 20260505024619 | 52 | 108 | 0.0 | 1.0 | 0.00 | 0.00 | 0.00 | 87 | 1011.2 |
| 20260505024540 | 52 | 0 | 0.0 | 0.0 | 0.00 | 0.00 | 0.00 | 86 | 1010.8 |
| 20260505024345 | 52 | 108 | 0.0 | 0.0 | 0.00 | 0.00 | 0.00 | 87 | 1011.2 |
| 20260505023836 | 52 | 108 | 0.0 | 0.0 | 0.00 | 0.00 | 0.00 | 87 | 1011.3 |
| 20260505023346 | 53 | 108 | 0.0 | 0.0 | 0.00 | 0.00 | 0.00 | 86 | 1011.3 |
| 20260505023109 | 52 | 108 | 0.0 | 0.0 | 0.00 | 0.00 | 0.00 | 86 | 1011.4 |
| 20260505023041 | 52 | 0 | 0.0 | 0.0 | 0.00 | 0.00 | 0.00 | 85 | 1010.9 |
| 20260505022853 | 53 | 108 | 0.0 | 0.0 | 0.00 | 0.00 | 0.00 | 86 | 1011.4 |
| 20260505022344 | 53 | 108 | 0.0 | 0.0 | 0.00 | 0.00 | 0.00 | 85 | 1011.5 |
| 20260505021854 | 53 | 108 | 0.0 | 1.0 | 0.00 | 0.00 | 0.00 | 85 | 1011.4 |
| 20260505021621 | 53 | 108 | 0.0 | 1.0 | 0.00 | 0.00 | 0.00 | 84 | 1011.4 |
| 20260505021538 | 53 | 0 | 0.0 | 1.0 | 0.00 | 0.00 | 0.00 | 84 | 1010.9 |
| 20260505021344 | 53 | 108 | 0.0 | 1.0 | 0.00 | 0.00 | 0.00 | 85 | 1011.4 |
| 20260505020854 | 53 | 108 | 0.0 | 1.0 | 0.00 | 0.00 | 0.00 | 84 | 1011.4 |
| 20260505020344 | 54 | 108 | 0.0 | 1.0 | 0.00 | 0.00 | 0.00 | 83 | 1011.4 |
| 20260505020112 | 53 | 108 | 0.0 | 1.0 | 0.00 | 0.00 | 0.00 | 84 | 1011.4 |
| 20260505020042 | 53 | 0 | 0.0 | 1.0 | 0.00 | 0.00 | 0.00 | 83 | 1011.0 |
| 20260505015913 | 54 | 108 | 0.0 | 1.0 | 0.00 | 0.00 | 0.00 | 84 | 1011.4 |
| 20260505015343 | 54 | 108 | 0.0 | 0.0 | 0.00 | 0.00 | 0.00 | 83 | 1011.3 |
| 20260505014852 | 54 | 108 | 0.0 | 0.0 | 0.00 | 0.00 | 0.00 | 83 | 1011.3 |
| 20260505014620 | 54 | 108 | 0.0 | 0.0 | 0.00 | 0.00 | 0.00 | 83 | 1011.3 |
| 20260505014542 | 54 | 0 | 0.0 | 0.0 | 0.00 | 0.00 | 0.00 | 82 | 1010.9 |
| 20260505014342 | 54 | 108 | 0.0 | 0.0 | 0.00 | 0.00 | 0.00 | 83 | 1011.3 |
| 20260505013853 | 54 | 108 | 0.0 | 0.0 | 0.00 | 0.00 | 0.00 | 82 | 1011.3 |
| 20260505013343 | 55 | 108 | 0.0 | 0.0 | 0.00 | 0.00 | 0.00 | 82 | 1011.2 |
| 20260505013111 | 54 | 108 | 0.0 | 1.0 | 0.00 | 0.00 | 0.00 | 82 | 1011.3 |
| 20260505013044 | 54 | 0 | 0.0 | 1.0 | 0.00 | 0.00 | 0.00 | 81 | 1010.8 |
| 20260505012849 | 55 | 108 | 0.0 | 1.0 | 0.00 | 0.00 | 0.00 | 82 | 1011.2 |
| 20260505012359 | 55 | 108 | 0.0 | 1.0 | 0.00 | 0.00 | 0.00 | 81 | 1011.1 |
| 20260505011848 | 55 | 108 | 0.0 | 1.0 | 0.00 | 0.00 | 0.00 | 81 | 1011.1 |
| 20260505011617 | 55 | 108 | 0.0 | 1.0 | 0.00 | 0.00 | 0.00 | 81 | 1011.1 |
| 20260505011545 | 55 | 0 | 0.0 | 1.0 | 0.00 | 0.00 | 0.00 | 80 | 1010.8 |
| 20260505011339 | 55 | 108 | 0.0 | 1.0 | 0.00 | 0.00 | 0.00 | 81 | 1011.1 |
| 20260505010849 | 56 | 108 | 0.0 | 1.0 | 0.00 | 0.00 | 0.00 | 81 | 1011.0 |
| 20260505010400 | 56 | 108 | 1.0 | 2.0 | 0.00 | 0.00 | 0.00 | 81 | 1010.9 |
| 20260505010118 | 55 | 108 | 0.0 | 2.0 | 0.00 | 0.00 | 0.00 | 80 | 1010.8 |
| 20260505010055 | 56 | 108 | 0.0 | 2.0 | 0.00 | 0.00 | 0.00 | 80 | 1010.6 |
| 20260505005845 | 56 | 108 | 1.0 | 2.0 | 0.00 | 0.00 | 0.00 | 80 | 1010.8 |
| 20260505005337 | 57 | 108 | 1.0 | 2.0 | 0.00 | 0.00 | 0.00 | 79 | 1010.7 |
| 20260505004847 | 57 | 108 | 1.0 | 2.0 | 0.00 | 0.00 | 0.00 | 78 | 1010.6 |
| 20260505004615 | 57 | 108 | 0.0 | 2.0 | 0.00 | 0.00 | 0.00 | 77 | 1010.6 |
| 20260505004540 | 57 | 0 | 0.0 | 1.0 | 0.00 | 0.00 | 0.00 | 76 | 1010.3 |
| 20260505004337 | 57 | 108 | 0.0 | 1.0 | 0.00 | 0.00 | 0.00 | 76 | 1010.6 |
| 20260505003847 | 58 | 108 | 0.0 | 1.0 | 0.00 | 0.00 | 0.00 | 76 | 1010.4 |
| 20260505003357 | 58 | 108 | 0.0 | 2.0 | 0.00 | 0.00 | 0.00 | 75 | 1010.5 |
| 20260505003101 | 58 | 108 | 0.0 | 2.0 | 0.00 | 0.00 | 0.00 | 74 | 1010.3 |
| 20260505003037 | 58 | 0 | 0.0 | 2.0 | 0.00 | 0.00 | 0.00 | 74 | 1010.1 |
| 20260505002844 | 58 | 108 | 1.0 | 2.0 | 0.00 | 0.00 | 0.00 | 74 | 1010.3 |
| 20260505002337 | 59 | 171 | 0.0 | 2.0 | 0.00 | 0.00 | 0.00 | 73 | 1010.2 |
| 20260505001847 | 59 | 171 | 0.0 | 2.0 | 0.00 | 0.00 | 0.00 | 72 | 1010.2 |
| 20260505001612 | 59 | 242 | 0.0 | 3.0 | 0.00 | 0.00 | 0.00 | 72 | 1010.1 |
| 20260505001537 | 59 | 175 | 0.0 | 4.0 | 0.00 | 0.00 | 0.00 | 71 | 1009.9 |
| 20260505001336 | 60 | 168 | 1.0 | 3.0 | 0.00 | 0.00 | 0.00 | 71 | 1010.2 |
| 20260505000847 | 60 | 171 | 0.0 | 2.0 | 0.00 | 0.00 | 0.00 | 70 | 1010.1 |
| 20260505000358 | 60 | 212 | 0.0 | 2.0 | 0.00 | 0.00 | 0.00 | 70 | 1010.0 |
| 20260505000118 | 60 | 185 | 0.0 | 3.0 | 0.00 | 0.00 | 0.00 | 68 | 1009.9 |
| 20260505000047 | 60 | 0 | 0.0 | 3.0 | 0.00 | 0.00 | 0.00 | 67 | 1009.7 |
| 20260504235845 | 61 | 185 | 0.0 | 3.0 | 0.00 | 0.00 | 0.00 | 68 | 1009.9 |
| 20260504235353 | 61 | 212 | 1.0 | 3.0 | 0.00 | 0.00 | 0.00 | 67 | 1009.8 |
| 20260504234844 | 62 | 236 | 1.0 | 5.0 | 0.00 | 0.00 | 0.00 | 65 | 1009.8 |
| 20260504234607 | 61 | 235 | 1.0 | 5.0 | 0.00 | 0.00 | 0.00 | 65 | 1009.8 |
| 20260504234541 | 61 | 180 | 2.0 | 6.0 | 0.00 | 0.00 | 0.00 | 65 | 1009.5 |
| 20260504234414 | 62 | 203 | 2.0 | 5.0 | 0.00 | 0.00 | 0.00 | 64 | 1009.8 |
| 20260504233842 | 62 | 239 | 3.0 | 6.0 | 0.00 | 0.00 | 0.00 | 64 | 1009.7 |
| 20260504233351 | 63 | 191 | 3.0 | 6.0 | 0.00 | 0.00 | 0.00 | 63 | 1009.5 |
| 20260504233114 | 62 | 163 | 1.0 | 4.0 | 0.00 | 0.00 | 0.00 | 63 | 1009.5 |
| 20260504233040 | 62 | 167 | 1.0 | 5.0 | 0.00 | 0.00 | 0.00 | 63 | 1009.2 |
| 20260504232838 | 63 | 175 | 2.0 | 5.0 | 0.00 | 0.00 | 0.00 | 62 | 1009.4 |
| 20260504232348 | 63 | 175 | 2.0 | 8.0 | 0.00 | 0.00 | 0.00 | 61 | 1009.4 |
| 20260504231837 | 64 | 132 | 2.0 | 6.0 | 0.00 | 0.00 | 0.00 | 61 | 1009.3 |
| 20260504231607 | 63 | 194 | 2.0 | 6.0 | 0.00 | 0.00 | 0.00 | 60 | 1009.3 |
| 20260504231539 | 63 | 196 | 2.0 | 6.0 | 0.00 | 0.00 | 0.00 | 60 | 1009.1 |
| 20260504231408 | 64 | 211 | 2.0 | 6.0 | 0.00 | 0.00 | 0.00 | 60 | 1009.3 |
| 20260504230837 | 64 | 217 | 2.0 | 6.0 | 0.00 | 0.00 | 0.00 | 59 | 1009.3 |
| 20260504230348 | 64 | 200 | 3.0 | 6.0 | 0.00 | 0.00 | 0.00 | 59 | 1009.2 |
| 20260504230116 | 64 | 230 | 3.0 | 6.0 | 0.00 | 0.00 | 0.00 | 58 | 1009.1 |
| 20260504230037 | 64 | 215 | 2.0 | 5.0 | 0.00 | 0.00 | 0.00 | 57 | 1008.9 |
| 20260504225855 | 65 | 204 | 2.0 | 4.0 | 0.00 | 0.00 | 0.00 | 58 | 1009.2 |
| 20260504225343 | 65 | 195 | 2.0 | 6.0 | 0.00 | 0.00 | 0.00 | 57 | 1009.1 |
| 20260504224854 | 65 | 202 | 4.0 | 7.0 | 0.00 | 0.00 | 0.00 | 57 | 1009.1 |
| 20260504224602 | 65 | 247 | 3.0 | 7.0 | 0.00 | 0.00 | 0.00 | 57 | 1009.1 |
| 20260504224543 | 65 | 183 | 3.0 | 8.0 | 0.00 | 0.00 | 0.00 | 56 | 1008.9 |
| 20260504224343 | 65 | 173 | 3.0 | 8.0 | 0.00 | 0.00 | 0.00 | 56 | 1009.1 |
| 20260504223915 | 66 | 210 | 4.0 | 7.0 | 0.00 | 0.00 | 0.00 | 56 | 1009.1 |
| 20260504223345 | 66 | 170 | 2.0 | 6.0 | 0.00 | 0.00 | 0.00 | 57 | 1009.1 |
| 20260504223111 | 66 | 154 | 1.0 | 4.0 | 0.00 | 0.00 | 0.00 | 58 | 1009.0 |
| 20260504223040 | 66 | 154 | 1.0 | 6.0 | 0.00 | 0.00 | 0.00 | 57 | 1008.9 |
| 20260504222914 | 66 | 202 | 2.0 | 6.0 | 0.00 | 0.00 | 0.00 | 57 | 1009.1 |
| 20260504222343 | 67 | 169 | 2.0 | 6.0 | 0.00 | 0.00 | 0.00 | 57 | 1009.1 |
| 20260504221913 | 67 | 148 | 3.0 | 7.0 | 0.00 | 0.00 | 0.00 | 55 | 1009.2 |
| 20260504221542 | 67 | 203 | 2.0 | 7.0 | 0.00 | 0.00 | 0.00 | 55 | 1008.9 |
| 20260504221342 | 67 | 198 | 4.0 | 7.0 | 0.00 | 0.00 | 0.00 | 53 | 1009.3 |
| 20260504220853 | 68 | 122 | 2.0 | 6.0 | 0.00 | 0.00 | 0.00 | 56 | 1009.3 |
| 20260504220345 | 68 | 194 | 2.0 | 8.0 | 0.00 | 0.00 | 0.00 | 52 | 1009.2 |
| 20260504220110 | 67 | 231 | 3.0 | 8.0 | 0.00 | 0.00 | 0.00 | 52 | 1009.3 |
| 20260504220048 | 67 | 187 | 3.0 | 8.0 | 0.00 | 0.00 | 0.00 | 52 | 1009.1 |
| 20260504215851 | 68 | 173 | 4.0 | 8.0 | 0.00 | 0.00 | 0.00 | 52 | 1009.4 |
| 20260504215341 | 68 | 159 | 3.0 | 7.0 | 0.00 | 0.00 | 0.00 | 53 | 1009.3 |
| 20260504214852 | 68 | 219 | 2.0 | 5.0 | 0.00 | 0.00 | 0.00 | 55 | 1009.4 |
| 20260504214609 | 68 | 145 | 2.0 | 5.0 | 0.00 | 0.00 | 0.00 | 52 | 1009.3 |
| 20260504214539 | 68 | 219 | 2.0 | 6.0 | 0.00 | 0.00 | 0.00 | 50 | 1009.0 |
| 20260504214345 | 69 | 165 | 3.0 | 5.0 | 0.00 | 0.00 | 0.00 | 51 | 1009.3 |
| 20260504213837 | 69 | 192 | 3.0 | 7.0 | 0.00 | 0.00 | 0.00 | 50 | 1009.4 |
| 20260504213348 | 69 | 204 | 4.0 | 7.0 | 0.00 | 0.00 | 0.00 | 50 | 1009.4 |
| 20260504213114 | 69 | 184 | 4.0 | 7.0 | 0.00 | 0.00 | 0.00 | 49 | 1009.4 |
| 20260504213059 | 69 | 192 | 3.0 | 7.0 | 0.00 | 0.00 | 0.00 | 48 | 1009.2 |
| 20260504212854 | 69 | 108 | 3.0 | 6.0 | 0.00 | 0.00 | 0.00 | 51 | 1009.5 |
| 20260504212343 | 70 | 210 | 2.0 | 6.0 | 0.00 | 0.00 | 0.00 | 49 | 1009.4 |
| 20260504211914 | 70 | 141 | 4.0 | 6.0 | 0.00 | 0.00 | 0.00 | 49 | 1009.4 |
| 20260504211622 | 70 | 162 | 3.0 | 6.0 | 0.00 | 0.00 | 0.00 | 50 | 1009.4 |
| 20260504211544 | 70 | 145 | 3.0 | 7.0 | 0.00 | 0.00 | 0.00 | 49 | 1009.1 |
| 20260504211343 | 71 | 55 | 4.0 | 6.0 | 0.00 | 0.00 | 0.00 | 48 | 1009.4 |
| 20260504210837 | 71 | 200 | 4.0 | 7.0 | 0.00 | 0.00 | 0.00 | 47 | 1009.4 |
| 20260504210348 | 72 | 107 | 3.0 | 9.0 | 0.00 | 0.00 | 0.00 | 44 | 1009.4 |
| 20260504210109 | 71 | 214 | 3.0 | 9.0 | 0.00 | 0.00 | 0.00 | 39 | 1009.3 |
| 20260504210041 | 71 | 184 | 4.0 | 10.0 | 0.00 | 0.00 | 0.00 | 39 | 1009.1 |
| 20260504205835 | 72 | 199 | 5.0 | 9.0 | 0.00 | 0.00 | 0.00 | 38 | 1009.4 |
| 20260504205345 | 72 | 254 | 4.0 | 12.0 | 0.00 | 0.00 | 0.00 | 38 | 1009.4 |
| 20260504204854 | 72 | 193 | 6.0 | 12.0 | 0.00 | 0.00 | 0.00 | 39 | 1009.4 |
| 20260504204617 | 71 | 213 | 4.0 | 10.0 | 0.00 | 0.00 | 0.00 | 38 | 1009.4 |